[[{"header":{"parameterUnit":"m.s-1","parameterCategory":1,"la1":30.2991,"la2":30.254,"lo1":-89.0895,"lo2":-89.0444,"dy":0.0017,"dx":0.0017,"nx":28,"ny":28,"refTime":"2023-08-26T21:00:00:Z","depth":0,"parameterNumber":2,"parameterNumberName":"U-component_of_WINDS"},"data":[0,0,0,0,0,0,0,0,0,0,0,0,0,0,0,0,0,0,0,0,0,0,0,0,0,0,0,0,0,0,0,0,0,0,0,0,0,0,0,0,0,0,0,0,0,0,0,0,0,0,0,0,0,0,0,0,0,0,1.9476,1.9474,0,1.9356,1.9354,1.9353,1.929,1.929,1.929,1.929,1.9153,1.915,1.9146,0,0,0,0,0,0,0,0,0,0,0,0,0,1.9641,1.9638,1.9476,1.9474,1.9473,1.9356,1.9354,1.9353,1.929,1.929,1.929,1.929,1.9155,1.915,1.9146,0,0,0,0,0,0,0,0,0,0,0,0,0,1.9549,1.9637,1.9476,1.9428,1.9423,1.9356,1.9354,1.9352,1.929,1.929,1.929,1.929,1.9156,1.9151,1.9145,1.9114,0,0,1.9129,1.9127,0,0,0,0,0,0,0,0,1.9555,1.9543,1.9437,1.9431,1.9425,1.9338,1.9362,1.9272,1.929,1.934,1.929,1.929,1.9214,1.9204,1.9181,1.9107,1.9101,1.9128,1.9125,1.9123,1.9121,0,0,0,0,0,0,0,1.9561,1.9548,1.9428,1.9435,1.9428,1.9409,1.9396,1.9345,1.9278,1.9336,1.9331,1.9318,1.9211,1.9186,1.9177,1.9099,1.9129,1.9124,1.912,1.9118,1.8996,1.8996,0,0,0,0,0,0,1.9577,1.9554,1.9432,1.9424,1.9491,1.9406,1.9392,1.9366,1.9279,1.9266,1.9319,1.9316,1.9196,1.9184,1.9172,1.9131,1.9123,1.9118,1.9115,1.8996,1.8996,1.8996,0,0,0,0,0,0,1.9581,1.9567,1.9436,1.9488,1.947,1.9404,1.9375,1.9364,1.9339,1.9266,1.9253,1.9307,1.9195,1.918,1.913,1.9125,1.9115,1.9111,1.8996,1.8996,1.8996,1.9047,0,0,0,0,0,0,1.9586,1.9568,1.9558,1.9488,1.9468,1.94,1.9375,1.9361,1.9332,1.9327,1.9251,1.9239,1.9194,1.9139,1.9125,1.9117,1.9106,1.8996,1.8996,1.8996,1.9045,1.9048,1.9051,0,0,0,0,0,1.9592,1.9573,1.9557,1.9543,1.9454,1.94,1.9387,1.934,1.9332,1.9319,1.9273,1.9241,1.9129,1.9134,1.9118,1.9109,1.8996,1.8996,1.8996,1.9044,1.9048,1.9051,0,0,0,0,0,0,1.9637,1.9563,1.9544,1.9504,1.946,1.9389,1.9371,1.9345,1.9298,1.9295,1.9235,1.9218,1.9174,1.9136,1.9144,1.9075,1.9059,1.9056,1.9101,1.9104,1.9107,1.9116,1.9102,0,0,0,0,0,1.9644,1.961,1.9545,1.9515,1.9495,1.9438,1.9412,1.9381,1.933,1.9309,1.9259,1.9207,1.9161,1.913,1.9083,1.9041,1.9022,1.9026,1.9029,1.9032,1.9029,1.9005,1.9006,1.8996,1.8996,1.8996,0,0,1.9654,1.961,1.9591,1.9524,1.9485,1.9449,1.9421,1.9383,1.9355,1.9301,1.9253,1.9215,1.9153,1.9108,1.9085,1.9075,1.9029,1.9032,1.9035,1.903,1.9005,1.9006,1.9007,1.8996,1.8996,1.8996,0,0,1.9655,1.9619,1.9591,1.9555,1.95,1.9463,1.9457,1.9392,1.9366,1.9318,1.9278,1.9242,1.9162,1.9121,1.909,1.9081,1.905,1.9067,1.9082,1.9059,1.906,1.906,1.9057,1.9056,1.9065,1.9065,1.9065,0,1.9673,1.9621,1.9578,1.9544,1.9516,1.9473,1.9443,1.9409,1.9339,1.9318,1.931,1.9212,1.9167,1.9113,1.9112,1.9088,1.9077,1.9074,1.9064,1.9064,1.9063,1.9059,1.9058,1.9067,1.9067,1.9067,1.9067,0,1.9647,1.9611,1.9594,1.9535,1.9505,1.9472,1.9423,1.9397,1.9369,1.9333,1.9285,1.9231,1.9173,1.9158,1.9128,1.91,1.9095,1.9076,1.9058,1.9068,1.9063,1.9061,1.9071,1.907,1.9069,1.9069,0,0,1.9667,1.959,1.9585,1.9558,1.9497,1.9466,1.9433,1.9382,1.9361,1.9315,1.9284,1.9221,1.9204,1.9169,1.9134,1.9115,1.9112,1.9098,1.9095,1.9102,1.9077,1.9091,1.909,1.9093,1.9093,1.9092,1.9082,0,1.9659,1.9601,1.9564,1.9519,1.9485,1.9447,1.9417,1.9375,1.9341,1.9305,1.9265,1.9222,1.9204,1.9183,1.9162,1.9117,1.9106,1.9117,1.906,1.9058,1.9075,1.9087,1.9101,1.9094,1.908,1.908,1.9079,0,1.964,1.9602,1.9556,1.9502,1.9486,1.946,1.9412,1.938,1.9331,1.9307,1.9272,1.9238,1.9199,1.9188,1.9132,1.9141,1.9115,1.909,1.9089,1.9079,1.9068,1.9077,1.909,1.9089,1.9076,1.9076,1.9076,0,1.966,1.9597,1.9561,1.954,1.9476,1.9459,1.9431,1.9383,1.9356,1.9313,1.9294,1.9246,1.9218,1.918,1.9134,1.9131,1.9083,1.9067,1.906,1.9061,1.9048,1.9049,1.9056,1.9036,1.9036,1.9036,1.9036,0,1.9652,1.9625,1.957,1.9548,1.9517,1.9474,1.9443,1.9411,1.937,1.9339,1.9301,1.9272,1.9215,1.9178,1.9141,1.9101,1.9088,1.9066,1.9056,1.9069,1.9071,1.9049,1.9047,1.9035,1.9035,1.9036,1.9036,0,1.9667,1.963,1.9589,1.9535,1.952,1.9499,1.9451,1.9427,1.9394,1.9355,1.9343,1.9289,1.9245,1.9197,1.9134,1.9109,1.907,1.9057,1.9088,1.9082,1.9077,1.9078,1.9068,1.9064,1.9048,1.9049,1.9049,0,1.9664,1.9644,1.9589,1.9569,1.9543,1.951,1.9484,1.9442,1.9416,1.9362,1.9344,1.9298,1.9259,1.9189,1.9142,1.9094,1.9079,1.9079,1.9071,1.9085,1.9077,1.9079,1.9076,1.908,1.9081,1.9081,1.9081,0,1.9663,1.9647,1.9614,1.9575,1.9547,1.9513,1.9477,1.9461,1.9411,1.9384,1.9341,1.9312,1.9252,1.9206,1.9154,1.912,1.9092,1.9086,1.9081,1.9091,1.911,1.9099,1.9093,1.9085,1.9084,1.9084,1.9084,1.9084,1.9668,1.9649,1.9609,1.9573,1.9544,1.9512,1.9488,1.9455,1.942,1.9371,1.9348,1.9305,1.9259,1.9187,1.9156,1.912,1.911,1.9104,1.9102,1.91,1.9104,1.9119,1.911,1.911,1.9109,1.9109,1.9109,0,1.9664,1.9638,1.9606,1.9561,1.9533,1.9516,1.9476,1.9452,1.9417,1.9379,1.9344,1.9295,1.9252,1.9204,1.9157,1.9138,1.9123,1.9126,1.9126,1.9119,1.9114,1.9123,1.9139,1.9139,1.9139,1.9139,1.9139,1.9139,1.9658,1.9626,1.9606,1.9557,1.953,1.9492,1.9471,1.9442,1.9411,1.9361,1.9327,1.9299,1.9256,1.9207,1.9166,1.9152,1.9136,1.9143,1.9125,1.9121,1.9119,1.9116,1.9124,1.914,1.914,1.9132,1.9132,1.9132]},{"header":{"parameterUnit":"m.s-1","parameterCategory":1,"la1":30.2991,"la2":30.254,"lo1":-89.0895,"lo2":-89.0444,"dy":0.0017,"dx":0.0017,"nx":28,"ny":28,"refTime":"2023-08-26T21:00:00:Z","depth":0,"parameterNumber":3,"parameterNumberName":"V-component_of_WINDS"},"data":[0,0,0,0,0,0,0,0,0,0,0,0,0,0,0,0,0,0,0,0,0,0,0,0,0,0,0,0,0,0,0,0,0,0,0,0,0,0,0,0,0,0,0,0,0,0,0,0,0,0,0,0,0,0,0,0,0,0,-2.7253,-2.7251,0,-2.6977,-2.6973,-2.697,-2.6734,-2.6731,-2.6729,-2.6726,-2.6442,-2.6437,-2.6432,0,0,0,0,0,0,0,0,0,0,0,0,0,-2.7572,-2.7568,-2.7254,-2.725,-2.7247,-2.6977,-2.6973,-2.697,-2.6735,-2.6731,-2.6728,-2.6725,-2.6444,-2.6438,-2.6432,0,0,0,0,0,0,0,0,0,0,0,0,0,-2.7379,-2.7566,-2.7254,-2.7097,-2.708,-2.6978,-2.6973,-2.6969,-2.6735,-2.6731,-2.6727,-2.6724,-2.6446,-2.6438,-2.6431,-2.6462,0,0,-2.6407,-2.6404,0,0,0,0,0,0,0,0,-2.739,-2.7367,-2.7124,-2.7108,-2.7089,-2.6886,-2.6981,-2.6799,-2.6736,-2.6866,-2.6726,-2.6722,-2.6593,-2.6573,-2.6529,-2.6448,-2.6436,-2.6407,-2.6402,-2.6399,-2.6396,0,0,0,0,0,0,0,-2.7404,-2.7378,-2.7144,-2.712,-2.7099,-2.7038,-2.7006,-2.6945,-2.6755,-2.6855,-2.6837,-2.6807,-2.6583,-2.6538,-2.6521,-2.6432,-2.6407,-2.64,-2.6395,-2.6392,-2.6353,-2.6356,0,0,0,0,0,0,-2.7442,-2.7391,-2.7153,-2.7136,-2.7233,-2.7036,-2.7,-2.6955,-2.6755,-2.6721,-2.6811,-2.6797,-2.6553,-2.653,-2.651,-2.6527,-2.6399,-2.6391,-2.6387,-2.6349,-2.6354,-2.6358,0,0,0,0,0,0,-2.745,-2.7423,-2.7164,-2.7258,-2.722,-2.7034,-2.6986,-2.6952,-2.6906,-2.6722,-2.6686,-2.68,-2.6549,-2.6521,-2.6473,-2.6514,-2.6388,-2.6381,-2.6345,-2.6351,-2.6356,-2.6566,0,0,0,0,0,0,-2.746,-2.7427,-2.7439,-2.726,-2.7216,-2.7135,-2.6988,-2.6949,-2.6894,-2.6873,-2.6703,-2.667,-2.6543,-2.6486,-2.6466,-2.6501,-2.6375,-2.6341,-2.6348,-2.6354,-2.6555,-2.6578,-2.6598,0,0,0,0,0,-2.7472,-2.7511,-2.7441,-2.7414,-2.7228,-2.7138,-2.7112,-2.6966,-2.6898,-2.6906,-2.6787,-2.6676,-2.6514,-2.6484,-2.6459,-2.6493,-2.6337,-2.6346,-2.6353,-2.6545,-2.6574,-2.6598,0,0,0,0,0,0,-2.7702,-2.7485,-2.7405,-2.7388,-2.7283,-2.7098,-2.7105,-2.7002,-2.6914,-2.6898,-2.6719,-2.6683,-2.6653,-2.6568,-2.6538,-2.6507,-2.641,-2.6414,-2.6565,-2.659,-2.6611,-2.6632,-2.6368,0,0,0,0,0,-2.775,-2.7697,-2.751,-2.7512,-2.7463,-2.7294,-2.7249,-2.7145,-2.7028,-2.6983,-2.686,-2.6751,-2.6673,-2.6627,-2.6547,-2.6541,-2.6497,-2.6551,-2.6573,-2.6592,-2.6597,-2.658,-2.66,-2.6384,-2.6384,-2.6384,0,0,-2.785,-2.7725,-2.7703,-2.7555,-2.7461,-2.7406,-2.7258,-2.7209,-2.7165,-2.6975,-2.6921,-2.6827,-2.6693,-2.6665,-2.6646,-2.6592,-2.6646,-2.6602,-2.6619,-2.6612,-2.659,-2.6611,-2.6629,-2.6389,-2.6388,-2.6388,0,0,-2.8003,-2.7906,-2.7893,-2.7801,-2.766,-2.7546,-2.7543,-2.7372,-2.7302,-2.7245,-2.7099,-2.7044,-2.6918,-2.6825,-2.6762,-2.6873,-2.6765,-2.6852,-2.6965,-2.6951,-2.6968,-2.6982,-2.7016,-2.7031,-2.6857,-2.6858,-2.6858,0,-2.8145,-2.8058,-2.7901,-2.7857,-2.7794,-2.7618,-2.7601,-2.752,-2.736,-2.7319,-2.7262,-2.7094,-2.6992,-2.6936,-2.6962,-2.6919,-2.6906,-2.687,-2.6978,-2.6991,-2.7002,-2.7032,-2.7046,-2.6869,-2.6868,-2.6867,-2.6866,0,-2.8236,-2.8178,-2.8185,-2.8033,-2.797,-2.7942,-2.7776,-2.7732,-2.7631,-2.7522,-2.7463,-2.7333,-2.722,-2.7199,-2.7102,-2.7127,-2.7097,-2.7012,-2.691,-2.7036,-2.7061,-2.7072,-2.6885,-2.6881,-2.6878,-2.6875,0,0,-2.8529,-2.8286,-2.829,-2.8216,-2.8045,-2.7995,-2.7956,-2.7844,-2.7807,-2.7702,-2.7661,-2.7555,-2.7471,-2.74,-2.729,-2.7278,-2.7367,-2.7192,-2.7186,-2.7225,-2.738,-2.7444,-2.7461,-2.7295,-2.7296,-2.7298,-2.739,0,-2.8651,-2.857,-2.8424,-2.8389,-2.833,-2.8159,-2.8123,-2.8012,-2.7908,-2.784,-2.7724,-2.765,-2.7549,-2.7503,-2.7484,-2.7361,-2.7395,-2.7352,-2.7251,-2.725,-2.7288,-2.7475,-2.7543,-2.7637,-2.74,-2.7401,-2.7402,0,-2.8783,-2.8685,-2.8645,-2.847,-2.844,-2.8411,-2.8293,-2.8232,-2.8101,-2.8025,-2.7943,-2.7821,-2.7765,-2.7674,-2.7592,-2.7566,-2.7516,-2.7448,-2.7448,-2.7431,-2.7333,-2.7459,-2.7663,-2.7677,-2.7418,-2.7416,-2.7415,0,-2.8994,-2.8852,-2.8807,-2.875,-2.8548,-2.853,-2.8445,-2.8309,-2.825,-2.8146,-2.8104,-2.7997,-2.7938,-2.7856,-2.7706,-2.7654,-2.7639,-2.7536,-2.7571,-2.7575,-2.7575,-2.7576,-2.7771,-2.7549,-2.7548,-2.7548,-2.7548,0,-2.9144,-2.9124,-2.8898,-2.8871,-2.8842,-2.8672,-2.8648,-2.8546,-2.8426,-2.8373,-2.8219,-2.8172,-2.7979,-2.7908,-2.7791,-2.7738,-2.7714,-2.7648,-2.7616,-2.766,-2.7668,-2.7623,-2.7611,-2.7552,-2.7551,-2.755,-2.755,0,-2.9374,-2.9223,-2.9162,-2.8974,-2.8926,-2.8912,-2.8749,-2.8714,-2.8599,-2.8533,-2.8508,-2.8327,-2.8235,-2.8078,-2.7942,-2.7862,-2.7831,-2.778,-2.7875,-2.7855,-2.7897,-2.7894,-2.8067,-2.8079,-2.7855,-2.7857,-2.7859,0,-2.9478,-2.9459,-2.9267,-2.922,-2.914,-2.9067,-2.9004,-2.8835,-2.8775,-2.862,-2.8602,-2.8498,-2.8406,-2.8267,-2.8121,-2.8015,-2.7957,-2.8025,-2.794,-2.7982,-2.7952,-2.7954,-2.7949,-2.8044,-2.8047,-2.805,-2.8052,0,-2.9677,-2.9601,-2.9517,-2.9404,-2.9333,-2.9237,-2.9132,-2.9102,-2.8909,-2.8849,-2.8752,-2.868,-2.8538,-2.8435,-2.8307,-2.8215,-2.81,-2.808,-2.8081,-2.8124,-2.8179,-2.8145,-2.7924,-2.8077,-2.8074,-2.8072,-2.8071,-2.807,-2.9843,-2.9815,-2.9675,-2.9583,-2.9487,-2.9391,-2.9347,-2.9225,-2.9142,-2.9013,-2.8917,-2.8827,-2.8689,-2.8504,-2.8419,-2.8343,-2.8291,-2.8295,-2.8295,-2.8298,-2.8312,-2.8193,-2.832,-2.8319,-2.8318,-2.8317,-2.8316,0,-3.0029,-2.9929,-2.9847,-2.9704,-2.9632,-2.953,-2.9407,-2.9352,-2.9274,-2.9157,-2.9067,-2.8954,-2.8851,-2.8697,-2.8581,-2.855,-2.8494,-2.8525,-2.8524,-2.8504,-2.8368,-2.8376,-2.8572,-2.8572,-2.8572,-2.8572,-2.8572,-2.8572,-3.0117,-3.0063,-2.997,-2.9864,-2.9762,-2.9672,-2.961,-2.952,-2.9424,-2.9304,-2.9217,-2.9117,-2.8982,-2.8855,-2.8755,-2.8712,-2.8675,-2.8722,-2.8662,-2.8538,-2.8514,-2.8492,-2.8498,-2.8716,-2.8717,-2.8803,-2.8804,-2.8804]}]]